Theta_e
316 318 318 322 328 327 324 322 321 321 321 320 321 322 321 326 329 333 336 340 341 339 335 333 332 334 333 330 332 330 327 320 317 314 312 310 309 310 313 324 330 327 324 314 311 312 309 309 309
317 316 318 324 325 326 322 320 321 321 322 321 321 322 322 327 331 327 340 341 341 339 335 333 333 333 331 333 334 331 327 322 318 316 314 312 309 309 312 325 328 326 319 312 310 309 308 308 310
315 315 323 325 325 324 322 321 320 322 321 321 322 321 323 327 330 331 337 341 341 340 335 333 334 333 331 333 334 332 329 325 321 319 317 315 311 309 309 314 322 322 312 311 310 308 308 308 310
319 320 320 321 325 322 321 319 322 321 320 320 321 323 324 327 331 334 336 340 340 340 337 335 334 333 330 332 334 333 330 327 324 321 320 319 315 312 309 308 310 310 309 308 308 307 307 307 309
320 323 322 323 324 321 321 321 321 321 320 320 321 322 326 328 331 332 337 340 340 339 338 336 333 333 330 331 333 333 332 329 326 323 322 322 321 317 313 309 308 307 306 306 305 305 305 306 308
320 321 321 323 322 320 321 320 321 321 320 320 320 320 326 324 321 333 337 339 339 338 338 336 334 333 329 330 332 333 333 331 328 325 324 323 322 320 317 314 311 311 311 311 309 307 305 304 306
322 321 321 321 322 321 320 320 320 320 319 320 320 320 326 325 325 329 336 337 338 337 337 336 333 333 330 330 331 332 333 332 330 328 326 325 323 321 318 316 315 315 316 316 315 313 308 304 306
319 321 321 321 321 321 320 320 320 321 320 319 320 319 323 325 327 326 333 336 338 336 336 336 335 333 331 330 331 331 332 332 331 329 327 326 323 322 320 319 318 318 318 317 316 315 312 305 306
317 319 319 321 320 320 319 319 318 319 319 319 318 320 324 324 325 331 330 335 336 336 335 336 336 333 332 330 331 331 332 332 329 328 327 326 324 323 322 321 320 319 319 318 317 316 313 307 307
317 319 319 316 316 317 318 319 318 317 317 318 319 319 323 324 323 332 332 334 336 335 335 336 335 334 334 333 331 331 331 331 329 328 328 326 325 323 323 322 321 320 319 318 317 316 315 311 308
316 317 315 315 315 315 318 318 318 318 317 318 318 319 318 322 323 332 333 334 335 335 334 335 335 335 334 335 333 331 330 329 329 328 328 327 326 324 323 323 322 322 320 319 318 317 316 315 313
315 316 315 315 314 316 316 317 318 317 318 318 319 318 319 318 320 325 331 333 334 335 336 335 335 334 334 335 335 331 331 329 329 329 329 328 326 325 323 323 322 322 321 321 319 317 316 313 311
315 315 314 314 314 314 315 315 316 317 317 317 317 317 319 318 320 324 329 331 331 334 335 336 336 334 334 334 334 332 332 331 330 330 329 329 326 325 325 323 323 322 321 321 319 318 315 311 310
316 316 315 315 315 315 314 315 315 315 315 316 317 317 316 318 318 324 326 329 331 332 334 334 333 335 334 333 334 332 331 331 331 330 330 330 329 327 326 325 325 323 323 322 320 319 317 312 309
316 315 315 315 315 316 315 315 314 315 315 315 315 316 316 316 317 319 322 324 329 331 332 334 333 335 335 335 334 333 332 331 331 331 330 331 330 328 326 327 327 325 325 322 321 320 318 313 309
315 316 315 317 315 315 316 314 315 317 317 316 316 316 316 316 315 316 318 323 325 330 332 333 333 330 332 333 334 336 331 332 330 331 329 329 331 330 328 328 328 327 325 323 321 320 319 311 308
316 313 315 317 316 315 314 317 317 317 316 316 316 318 319 318 317 316 316 320 324 327 331 333 332 330 329 334 332 332 329 328 329 330 330 327 328 330 330 328 328 328 326 324 322 320 314 311 308
314 315 315 316 315 315 315 313 314 316 317 317 317 318 317 317 318 318 317 316 322 325 329 332 331 330 329 331 330 328 328 329 328 331 331 327 326 329 329 328 328 326 326 325 322 321 318 309 308
313 314 314 315 314 315 314 314 313 316 316 316 317 317 317 317 317 318 318 318 317 324 326 330 330 330 327 327 327 329 330 330 328 328 329 329 329 328 329 327 328 326 326 324 322 321 318 308 306
314 314 314 313 314 315 314 314 314 314 315 316 316 316 317 317 317 317 318 318 317 318 326 329 329 328 323 325 328 330 330 330 329 329 328 328 325 328 328 326 326 327 325 323 321 321 318 307 306
314 314 313 313 314 314 314 313 313 314 316 316 316 316 317 317 317 318 318 318 317 316 317 324 327 327 325 325 328 331 332 332 331 331 329 326 329 329 324 325 325 325 324 323 321 321 317 316 307
314 313 312 313 314 312 315 313 314 313 314 315 318 318 318 318 318 318 318 317 316 316 314 319 324 325 325 324 326 328 329 329 328 327 327 326 328 325 324 322 324 324 323 321 321 320 316 316 312
314 314 314 315 314 314 314 313 313 312 313 313 314 317 318 320 319 318 317 316 315 315 314 313 318 322 322 323 322 324 325 325 325 324 325 326 325 325 324 323 322 322 322 321 321 318 317 313 311
313 314 315 315 314 314 313 312 312 313 315 315 316 319 320 320 319 316 316 315 314 314 313 313 313 316 318 319 319 319 321 320 320 319 317 317 318 318 322 322 321 322 321 320 319 317 314 313 308
315 314 315 318 315 315 313 313 313 319 317 318 318 318 317 317 315 315 315 315 314 313 312 312 312 313 314 315 316 316 317 316 315 313 311 311 314 314 318 321 320 319 319 319 318 316 315 312 307
313 314 315 316 318 315 314 315 317 318 319 319 319 319 317 316 315 314 315 314 314 313 312 312 311 311 312 312 312 312 313 312 311 310 310 312 312 313 318 319 318 319 318 317 317 316 313 310 307
314 315 314 315 309 314 315 316 316 317 317 317 318 318 316 315 314 314 314 313 313 313 313 312 311 311 310 310 310 310 310 310 310 310 310 312 311 314 315 317 317 316 316 316 315 314 311 306 306
314 314 316 316 317 316 314 314 316 318 316 314 315 317 316 315 315 314 314 314 314 313 312 311 312 311 310 310 309 309 309 309 309 309 310 310 313 312 313 314 315 314 313 314 313 311 307 305 304
314 314 316 316 316 316 315 314 317 317 316 316 316 318 317 316 315 313 313 313 313 314 314 313 313 313 312 311 310 309 309 309 309 309 309 310 310 311 312 312 312 312 312 312 310 308 302 301 300
313 314 316 317 317 315 316 317 314 313 312 313 314 314 314 313 312 312 313 313 313 314 314 314 314 314 313 312 312 310 309 308 308 308 308 308 309 309 310 309 310 310 310 309 307 303 302 299 299
Wind_Speed
3 2 3 5 2 3 5 4 5 6 5 5 6 6 4 14 5 4 17 10 16 14 17 14 12 12 9 7 8 9 10 12 13 14 14 14 13 11 16 20 13 10 13 14 17 17 17 19 20
3 3 3 5 3 2 3 7 5 8 10 7 4 1 1 4 7 13 16 15 19 11 17 15 13 12 9 8 7 8 9 11 12 12 13 14 14 13 15 16 14 10 12 15 16 16 17 18 20
3 4 3 3 3 5 5 3 10 11 7 5 5 3 4 6 7 13 8 20 18 12 13 16 14 13 10 8 7 7 8 9 10 11 13 13 14 13 14 12 13 10 14 15 16 16 17 18 21
4 1 5 2 4 6 6 8 17 10 4 4 3 8 6 8 10 9 17 20 18 13 11 13 14 13 11 10 8 7 7 8 9 10 11 12 13 13 13 12 11 12 13 14 15 15 16 17 19
3 3 3 4 4 5 5 10 13 7 11 10 3 5 6 10 13 11 21 20 18 16 14 13 15 14 12 10 8 7 7 7 7 9 10 11 11 11 11 11 11 12 13 14 14 14 15 16 18
4 3 4 5 5 7 4 6 5 7 9 9 4 1 6 6 10 14 18 20 16 16 14 14 16 15 13 11 9 8 7 6 6 7 8 10 10 10 10 10 11 12 13 13 13 13 13 14 17
2 2 7 8 3 6 4 7 6 7 10 7 2 1 8 9 11 15 16 17 17 16 16 17 17 16 13 11 9 8 7 6 6 6 6 7 9 10 11 12 12 13 13 14 13 13 13 15 17
2 1 7 5 4 2 7 9 3 4 3 10 7 1 6 12 14 14 18 18 17 15 15 15 18 17 16 14 11 9 8 7 7 6 7 7 8 11 12 12 12 13 13 14 14 13 13 15 14
2 2 4 5 6 2 12 6 3 3 5 4 5 1 10 12 15 13 19 18 19 17 16 17 16 17 17 15 14 11 10 8 8 7 6 4 6 9 10 10 10 11 11 12 12 13 13 12 9
3 3 5 9 9 5 9 6 10 2 7 5 7 8 13 13 14 17 20 22 22 21 18 17 18 17 16 15 16 15 13 10 9 8 7 6 4 6 6 6 7 7 7 8 10 10 10 10 7
4 3 6 10 8 6 5 3 5 4 5 15 15 17 15 15 15 18 18 21 23 20 22 20 18 18 20 19 17 17 16 12 12 12 11 7 5 4 3 4 4 4 4 4 5 4 5 4 6
2 9 2 4 3 2 2 4 4 12 14 2 6 6 18 19 18 20 20 22 23 23 22 22 21 19 20 21 19 19 17 18 16 16 15 14 9 7 6 6 6 6 5 3 1 2 2 2 7
3 6 1 2 1 3 4 5 6 15 12 16 14 9 15 17 18 18 20 20 22 26 26 27 26 24 23 23 20 22 19 20 19 19 17 16 12 10 10 9 10 7 4 4 3 1 1 2 7
4 5 3 4 7 5 3 5 3 7 7 17 15 17 15 18 18 19 21 25 26 27 28 28 27 26 25 26 24 23 21 21 20 19 20 20 18 16 14 13 10 8 7 7 5 4 3 2 6
1 3 7 12 10 2 4 6 10 27 14 13 15 18 19 19 21 23 25 26 29 30 29 31 30 33 29 28 23 25 24 23 23 21 17 18 21 22 19 16 15 14 12 10 9 6 6 7 8
4 3 3 1 12 4 4 6 8 12 15 20 16 18 21 22 23 25 27 27 28 30 32 33 34 32 34 30 27 27 26 25 25 24 21 18 22 23 24 19 17 15 14 14 12 10 11 10 10
5 5 7 4 10 5 7 5 4 3 4 11 15 16 16 18 21 24 26 28 29 31 33 35 35 34 33 35 37 35 31 25 23 25 25 23 23 24 27 25 21 18 17 16 14 14 12 14 14
7 6 6 5 6 2 6 12 10 19 12 17 19 21 21 20 21 24 24 26 31 32 35 34 37 36 36 42 42 37 33 30 28 28 28 27 25 24 26 27 23 22 20 20 19 18 17 18 17
8 5 8 2 6 5 8 10 10 20 21 23 26 27 29 27 24 24 26 24 31 31 32 37 40 39 40 43 41 38 37 34 32 31 31 30 29 27 27 24 28 27 27 21 20 20 21 24 23
8 5 7 8 6 2 6 12 14 16 18 28 31 30 31 26 22 22 29 29 26 31 35 37 39 39 40 40 40 40 39 38 36 35 34 34 32 28 30 30 30 37 28 25 26 25 24 27 25
5 6 5 7 4 6 5 8 12 12 19 30 33 36 34 30 22 20 27 32 25 27 33 37 37 37 38 37 38 39 39 39 39 38 37 35 33 31 33 29 30 38 32 28 30 27 28 25 31
6 4 9 6 2 4 4 6 5 10 9 10 23 25 23 19 20 22 19 25 25 26 27 32 34 35 36 38 37 37 39 40 40 38 36 35 34 35 34 31 30 32 27 27 34 32 31 28 34
4 3 2 3 3 6 4 5 6 12 8 10 18 23 20 18 12 14 18 16 20 23 26 29 33 35 36 37 37 35 36 36 36 35 35 34 33 34 35 32 31 32 27 29 35 34 32 34 38
8 5 4 1 2 6 7 7 4 8 7 7 14 7 14 15 15 16 15 18 20 21 23 26 30 32 35 37 36 37 33 32 34 34 34 35 36 35 34 34 31 33 35 31 34 34 37 39 36
5 6 2 2 2 9 8 7 9 3 6 3 3 9 9 10 9 10 12 13 15 18 20 24 26 28 33 35 36 36 33 32 32 30 29 29 32 34 34 32 33 33 32 32 31 36 37 40 42
10 8 5 7 5 5 2 7 5 3 3 7 15 8 10 10 11 12 10 11 12 14 15 18 20 22 29 31 30 32 32 33 31 28 27 27 26 26 29 30 31 32 32 35 34 35 36 40 39
6 9 6 5 2 2 5 7 9 6 9 11 9 9 15 13 12 11 11 10 10 12 13 15 15 17 22 25 23 27 28 31 30 28 27 26 27 27 26 29 30 28 31 34 34 33 36 37 37
6 3 3 3 4 5 7 6 9 5 9 12 8 18 15 14 16 15 11 9 8 7 7 9 9 12 16 19 20 22 23 25 26 27 26 26 26 25 21 23 26 28 28 30 33 33 32 35 34
5 4 5 5 5 5 5 6 1 5 6 6 6 8 14 17 14 13 12 13 9 5 3 2 4 5 9 12 16 20 22 22 23 23 24 26 25 23 24 25 25 27 28 32 30 31 33 35 35
4 11 12 5 4 5 3 13 3 7 7 13 12 10 4 5 9 13 15 11 9 6 3 3 5 7 9 11 14 17 21 23 25 25 25 26 24 24 24 24 26 27 28 30 30 32 34 31 29
Wind_Direction
173 134 9 311 316 206 121 93 84 110 134 72 50 33 37 49 19 109 134 152 161 183 165 158 155 146 137 123 117 99 84 79 78 78 77 77 82 83 80 96 88 80 79 86 82 83 83 86 89
176 90 344 279 235 202 86 116 152 82 100 107 87 1 266 101 69 133 152 145 148 185 164 164 162 154 146 133 119 102 90 86 82 80 79 79 82 78 88 97 98 81 83 79 80 81 83 88 90
149 102 294 243 281 24 105 113 94 94 116 127 120 64 28 85 103 128 174 147 149 176 178 166 166 161 156 142 128 111 97 88 82 80 77 77 79 82 88 99 106 94 78 78 78 79 83 87 90
90 16 268 277 285 67 59 95 112 125 99 107 64 109 93 106 130 179 152 150 151 161 180 174 171 169 165 157 144 125 112 99 93 88 84 82 84 85 87 95 94 88 83 80 80 81 84 87 92
159 266 266 228 301 96 75 83 141 166 154 151 179 119 108 135 176 163 151 154 154 174 180 187 178 176 173 169 158 142 128 112 104 99 93 87 84 82 87 92 91 86 84 84 84 85 87 90 94
239 265 278 243 217 93 93 140 159 161 128 106 171 229 108 189 162 152 156 156 163 182 184 193 180 180 179 178 174 162 148 133 118 107 97 90 88 91 93 92 91 90 87 84 82 82 85 92 96
266 193 261 285 242 123 152 153 188 186 147 170 122 177 137 181 163 161 158 157 179 186 196 198 184 183 185 187 184 177 167 152 139 124 103 86 80 86 95 99 98 95 92 88 85 85 90 96 106
288 318 262 270 301 175 105 156 197 228 133 132 154 330 152 183 172 175 161 166 183 196 201 197 187 190 191 190 190 189 185 169 146 121 103 89 98 102 99 97 96 97 93 87 86 88 94 109 125
246 337 251 249 240 253 129 173 177 224 118 154 193 110 118 176 178 172 164 175 184 194 203 200 200 196 198 198 193 190 189 177 167 161 138 103 117 114 107 101 95 97 88 84 85 90 97 113 127
214 194 269 21 21 23 133 219 158 192 208 176 192 213 153 186 176 178 175 182 190 197 206 204 205 203 196 205 200 191 190 184 198 202 187 170 136 109 112 109 107 104 94 93 94 99 113 127 137
207 240 12 44 37 35 358 199 272 197 253 210 212 219 196 196 187 187 191 192 193 212 197 205 212 202 201 203 202 202 200 204 204 204 208 213 200 181 198 169 141 134 127 113 104 90 102 123 145
283 243 5 11 30 36 287 294 239 240 246 331 203 196 211 204 206 198 203 197 200 206 200 204 211 210 218 217 211 210 210 202 204 215 211 203 210 214 209 209 192 181 191 206 135 69 96 126 154
212 260 151 238 270 229 289 261 260 272 252 254 260 232 205 216 214 213 208 209 209 204 213 202 206 205 217 223 219 213 219 212 215 213 215 215 219 220 220 225 213 216 219 241 217 220 160 161 173
15 1 239 200 222 212 222 264 224 263 253 241 248 250 221 223 222 214 214 212 211 213 211 213 210 205 211 227 224 219 218 220 222 220 220 219 219 212 222 230 225 225 232 244 225 251 257 227 187
293 287 224 227 213 205 194 268 226 256 251 242 238 243 244 232 223 221 228 221 214 214 213 215 219 198 205 221 225 225 224 222 221 232 225 221 226 224 219 230 225 226 229 230 227 232 237 231 195
223 204 240 304 148 163 167 264 255 242 234 235 241 250 248 246 234 231 226 229 221 216 216 213 223 218 209 213 218 220 226 225 221 225 233 231 235 234 230 227 227 233 231 232 226 229 241 205 201
192 249 212 164 172 128 184 283 106 207 242 255 252 255 251 247 243 244 234 223 230 219 218 220 225 225 210 213 219 219 226 226 225 226 235 240 239 240 237 227 228 227 234 237 235 234 224 207 196
218 209 248 244 187 203 205 257 283 277 249 245 252 255 257 254 243 243 246 231 223 227 219 221 224 228 217 219 224 227 229 232 237 234 236 241 244 242 241 234 226 235 233 224 227 234 219 211 201
284 343 310 13 149 181 228 259 259 269 271 267 260 256 256 255 254 252 242 244 224 226 220 220 225 229 225 225 229 228 230 230 233 234 236 238 244 239 239 244 228 238 227 235 228 230 217 202 202
282 243 274 298 114 166 266 266 273 261 249 249 251 256 258 262 255 248 243 233 233 224 222 223 230 233 233 228 230 230 233 232 234 237 237 239 241 238 239 240 242 243 234 228 234 225 208 207 204
254 243 251 258 313 208 262 271 241 268 245 247 256 259 259 255 256 246 238 228 227 234 230 228 229 231 236 235 230 231 232 234 235 236 237 240 233 226 241 238 236 236 243 241 231 239 223 227 209
248 247 232 244 339 258 133 285 284 295 255 227 245 254 255 255 247 239 235 229 230 239 233 229 229 230 234 240 235 233 235 235 237 239 239 239 233 237 240 243 240 239 234 251 238 232 225 238 221
205 25 86 169 234 303 210 263 243 220 262 248 246 247 254 231 197 210 227 232 234 244 240 230 229 228 232 237 242 238 236 238 240 240 238 238 237 234 239 238 242 242 246 243 235 229 235 233 228
131 92 72 58 199 262 162 204 225 227 231 234 228 227 188 194 211 215 220 223 234 232 232 230 227 227 231 234 238 242 238 237 239 239 241 242 241 241 238 236 237 238 245 242 238 233 233 233 223
157 143 184 267 184 241 161 215 240 182 294 331 328 167 185 211 214 213 219 226 229 232 231 231 230 227 231 235 236 239 240 238 243 244 246 244 239 242 237 232 237 238 243 243 244 239 241 233 224
195 180 175 199 191 260 37 238 250 212 295 254 271 195 195 211 216 218 226 242 242 239 237 235 229 226 235 241 242 240 238 241 243 245 247 243 243 239 233 237 240 238 242 248 239 239 237 233 229
185 219 222 328 86 18 224 265 283 212 240 247 246 185 196 197 207 228 249 251 246 244 241 238 233 232 238 249 246 244 239 240 243 246 244 241 242 237 237 236 240 243 241 244 239 239 238 227 226
171 171 125 221 197 221 256 253 235 310 260 233 215 220 207 215 220 236 226 200 190 190 209 221 228 233 238 252 254 248 243 242 244 242 242 242 238 243 240 242 241 239 247 246 244 236 228 225 224
168 209 211 176 197 179 263 252 86 102 38 22 314 261 214 203 226 218 186 163 159 147 162 227 256 273 264 263 258 255 254 250 247 246 244 242 242 241 243 245 248 247 247 241 237 235 229 226 225
267 205 204 184 215 217 169 250 41 77 53 28 50 49 63 229 213 190 171 163 158 160 176 225 244 253 255 263 265 261 252 248 247 245 245 243 241 244 245 250 247 248 244 240 241 238 232 223 223